GFSNIL_con_3kmhel_021.txt.gz
Helicity
231 183 166 135 93 110 129 94 65 44 56 114 118 107 115 92 71 70 82 69 81 91
218 171 116 94 177 159 114 65 60 52 101 99 98 83 73 91 73 103 103 96 94 77
193 175 177 239 232 177 112 72 86 92 77 102 93 68 84 83 66 91 99 90 90 98
158 154 208 257 214 199 117 95 74 82 83 92 99 79 56 40 47 72 94 102 89 81
188 228 241 288 235 238 155 133 154 157 126 108 102 86 71 81 108 110 114 89 62 35
179 235 212 323 243 289 145 160 200 181 141 118 101 89 98 118 102 80 51 26 13 15
177 166 291 357 360 246 190 165 204 210 166 161 119 148 127 109 91 69 42 24 25 30
174 232 273 293 309 368 151 133 263 204 191 185 166 165 163 148 95 46 35 30 19 20
179 158 151 172 187 228 74 152 253 181 144 201 180 188 163 128 96 81 74 68 47 59
108 53 29 121 212 209 136 226 231 159 193 176 159 144 129 120 148 127 109 96 72 69
79 22 11 40 182 238 167 211 253 150 169 152 129 114 100 151 157 136 116 93 78 74
89 50 44 114 155 25 122 156 123 121 127 93 65 69 193 165 136 129 115 91 61 51
83 94 96 54 23 66 92 110 113 111 71 31 76 155 175 145 169 134 87 57 44 16
103 90 92 80 55 86 146 159 127 87 41 65 122 134 163 185 146 93 71 58 50 43

GFSNIL_con_3kmhel_024.txt.gz
Helicity
164 117 68 77 93 137 99 75 45 48 10 30 56 60 70 85 86 77 74 68 74 96
116 80 96 93 148 140 130 130 104 58 57 55 47 68 82 93 79 71 73 72 71 78
124 113 135 174 163 169 174 168 116 111 92 71 58 83 110 125 100 74 55 65 99 101
98 133 153 189 223 240 233 218 127 136 90 106 99 100 127 155 154 138 102 87 76 55
133 143 179 195 212 240 249 278 226 199 139 122 124 126 154 200 144 125 106 92 67 38
197 224 191 219 214 253 216 242 235 98 114 141 147 131 183 202 155 135 97 62 43 36
181 134 128 193 179 198 238 266 130 116 82 135 150 145 203 190 144 101 82 65 67 62
112 102 109 67 59 99 137 167 207 172 147 190 154 171 170 123 99 94 99 105 100 83
104 116 81 76 67 136 183 199 264 77 185 180 145 136 101 89 109 126 133 120 111 113
102 88 53 48 90 163 215 213 81 136 134 135 105 78 88 118 154 156 135 131 130 109
93 58 45 94 103 93 103 54 97 123 110 112 97 108 134 138 150 154 150 126 87 78
77 56 84 109 99 84 64 98 99 111 107 83 68 100 128 148 138 132 106 71 61 65
60 80 116 132 121 123 99 116 115 106 85 89 75 93 110 129 131 115 79 67 66 40
96 99 121 109 107 75 124 113 99 90 62 72 85 80 89 96 126 106 73 78 84 95

GFSNIL_con_3kmhel_027.txt.gz
Helicity
128 135 125 117 97 109 121 137 118 124 110 82 67 71 98 106 93 81 77 100 127 132
106 121 118 85 105 124 132 143 153 188 170 148 128 106 97 78 66 85 85 106 141 138
94 103 121 137 123 147 165 190 217 212 204 166 157 166 95 70 74 85 129 174 184 159
110 122 142 143 159 185 217 237 263 299 276 228 185 107 88 88 87 127 153 144 135 122
157 164 148 164 168 173 195 248 258 287 247 101 41 94 85 88 112 153 142 131 126 109
158 150 138 107 116 136 169 199 246 242 154 170 192 119 151 145 163 170 132 123 115 107
140 115 127 146 130 107 152 219 221 203 180 275 171 159 190 171 167 132 134 132 128 138
125 124 139 137 111 108 131 165 160 166 145 133 98 144 124 132 122 129 135 141 150 150
154 149 126 90 83 69 128 167 187 102 44 139 139 114 108 104 122 132 144 141 143 149
143 118 102 82 88 75 92 85 80 84 134 131 124 129 143 144 135 128 135 149 148 125
118 111 82 76 86 87 80 80 79 109 121 126 122 138 116 134 115 104 121 121 102 94
133 117 99 83 101 123 114 98 100 105 119 124 110 104 100 104 94 90 101 90 84 75
133 111 94 83 88 110 105 119 120 118 115 122 101 84 86 88 91 96 100 86 68 55
127 104 100 95 122 129 148 131 116 105 102 102 91 77 81 77 80 86 105 87 68 81

GFSNIL_con_3kmhel_030.txt.gz
Helicity
98 108 112 120 131 124 140 132 138 150 183 178 198 206 191 188 162 157 108 74 75 91
77 93 101 93 111 138 155 184 185 217 239 273 284 159 196 187 129 98 79 81 96 122
127 126 130 139 148 167 186 210 209 247 258 281 228 234 158 139 131 125 98 103 111 132
142 133 153 166 177 181 182 174 181 200 224 290 254 190 178 148 141 111 124 118 144 128
154 172 181 170 174 168 149 137 151 181 263 216 161 155 174 203 117 170 133 126 139 125
164 157 157 154 143 131 130 136 148 191 196 177 157 200 222 180 133 138 118 120 122 121
130 120 123 124 128 124 119 130 130 158 167 149 84 118 147 124 125 118 116 117 136 154
113 132 135 135 126 115 126 130 139 144 124 113 118 151 133 115 109 106 103 121 135 151
152 153 145 125 131 123 102 93 97 121 119 126 127 131 133 124 114 114 120 116 128 146
164 140 120 113 123 120 94 93 109 126 142 115 97 120 109 113 113 113 102 106 117 116
145 123 113 120 116 112 110 107 116 132 113 102 97 107 99 96 107 102 89 95 108 114
135 129 132 128 110 110 121 128 139 135 123 107 96 98 91 99 97 88 80 85 115 105
157 151 135 119 101 120 130 135 151 144 121 110 99 83 79 86 99 102 95 92 96 80
175 158 133 119 122 138 160 176 156 137 108 102 93 72 69 70 104 102 97 93 91 90

GFSNIL_con_3kmhel_033.txt.gz
Helicity
171 169 154 139 124 128 135 142 136 157 182 190 201 210 209 162 93 111 133 90 119 110
180 133 119 127 140 141 139 163 180 172 155 155 195 202 193 147 123 153 140 127 105 85
142 127 126 130 148 172 188 182 159 141 140 141 168 203 198 155 161 132 130 124 111 116
156 147 144 153 181 181 149 141 142 138 140 148 197 178 144 117 115 142 121 109 135 123
145 146 174 198 164 128 121 124 131 130 138 177 170 102 119 128 186 125 116 126 125 118
160 190 183 142 113 110 115 117 125 136 148 153 144 136 100 100 118 118 112 108 104 104
170 143 124 115 111 109 114 127 132 137 129 125 116 108 109 113 101 95 94 98 113 115
126 131 126 124 118 109 109 114 121 125 117 123 141 125 93 83 83 82 83 95 102 114
141 126 142 134 120 109 115 136 135 117 114 141 129 110 90 74 70 74 87 91 93 97
135 143 138 118 110 108 120 124 123 109 134 133 111 95 79 74 67 71 79 86 91 85
143 140 122 114 113 121 122 112 117 122 136 125 104 86 76 65 63 69 75 81 81 77
137 128 129 125 124 117 123 133 124 116 131 116 93 83 72 55 63 63 66 78 68 72
138 153 149 135 126 127 128 135 141 142 136 117 84 81 65 55 65 61 72 61 63 67
148 162 164 142 135 132 130 156 153 147 127 92 79 73 58 53 58 72 74 72 69 68

GFSNIL_con_3kmhel_036.txt.gz
Helicity
160 164 181 164 140 118 122 134 171 178 165 147 142 139 125 109 85 68 82 63 75 110
152 172 171 153 139 135 135 157 161 137 131 127 134 134 105 75 92 102 94 74 73 120
156 174 164 139 133 141 150 135 132 113 107 111 117 116 117 98 85 70 68 72 99 95
187 159 129 127 144 155 134 116 96 96 96 106 116 136 169 105 91 102 71 82 86 87
154 122 133 154 148 140 104 92 86 88 94 117 152 137 125 108 122 87 77 74 84 85
125 129 154 154 125 103 96 87 91 104 144 128 119 123 127 109 106 89 75 73 72 74
137 148 150 139 114 105 102 99 118 135 130 132 123 133 137 112 81 61 62 64 69 82
132 131 136 129 112 117 119 118 122 145 132 129 131 150 116 75 50 48 55 59 72 85
122 129 136 121 115 118 109 112 119 122 142 135 155 167 113 66 46 50 55 63 65 79
134 127 114 111 112 103 110 126 136 124 138 134 154 149 101 62 37 55 59 62 67 78
125 104 110 114 109 121 127 122 132 134 128 114 161 134 85 47 33 50 56 61 67 70
110 104 111 118 140 124 135 124 151 126 127 109 116 138 71 42 47 49 45 58 64 78
106 110 116 135 138 136 124 124 132 125 131 149 101 134 76 54 50 49 50 52 61 93
109 125 122 137 132 127 116 125 137 143 125 104 91 82 90 58 46 49 52 59 62 70

GFSNIL_con_3kmhel_039.txt.gz
Helicity
282 229 82 188 173 146 159 161 172 125 125 105 99 106 118 126 122 117 101 105 133 96
167 88 144 206 148 143 144 143 143 138 118 103 99 101 109 117 96 92 96 119 139 127
149 83 185 150 149 148 143 130 130 119 106 99 100 98 102 139 153 127 91 141 142 117
58 148 145 142 157 138 138 129 120 105 105 95 99 184 162 122 101 135 166 169 139 108
114 130 143 146 129 150 136 115 104 102 105 142 153 123 159 167 170 153 141 109 68 85
129 127 131 133 154 142 120 107 98 109 123 137 141 128 147 134 105 112 110 93 82 64
173 135 128 151 143 129 108 97 101 110 157 142 82 111 117 140 150 103 81 73 68 63
163 132 127 142 114 103 99 98 96 105 139 115 127 199 198 152 110 87 61 67 61 67
137 122 114 110 109 97 97 87 88 158 133 141 138 358 220 131 91 61 59 66 66 68
113 90 98 107 105 107 127 124 117 192 146 120 207 298 200 121 70 48 66 66 63 68
79 82 93 95 106 125 148 121 110 201 169 127 187 262 182 110 46 55 56 62 59 63
94 90 85 90 116 144 133 135 153 175 138 139 181 250 181 104 59 55 59 49 53 95
86 81 79 92 107 131 133 126 155 165 134 170 183 194 154 103 70 62 49 41 56 138
65 80 91 97 119 114 112 153 166 174 138 154 162 129 155 107 72 56 55 47 55 71